Miscellaneous Local Product
Issued by NWS North Platte, NE

Home | Current Version | Previous Version | Graphics & Text | Print | Product List | Glossary On
Versions: 1 2 3 4 5 6 7 8 9 10 11 12 13 14 15 16 17 18 19 20 21 22 23 24 25 26 27 28 29 30 31 32 33 34 35 36 37 38 39 40 41 42 43 44 45 46 47 48 49 50
138
AXUS43 KLBF 211210
MISLBF


WESTERN AND NORTH CENTRAL NEBRASKA HOURLY WEATHER ROUNDUP
NATIONAL WEATHER SERVICE NORTH PLATTE NE
700 AM CDT SAT OCT 21 2017

NOTE: "FAIR" INDICATES FEW OR NO CLOUDS BELOW 12,000 FEET WITH NO
SIGNIFICANT WEATHER AND/OR OBSTRUCTIONS TO VISIBILITY.

NOTE: STATIONS NOT REPORTING VARIABLES SUCH AS SKY/WEATHER OR
PRESSURE ARE PROVIDED BY RAWS AND APRS NETWORKS AND ARE NOT UNDER
NATIONAL WEATHER SERVICE QUALITY CONTROL.

...OBSERVATIONS IN AND NEAR THE EASTERN PANHANDLE OF NEBRASKA...

CITY           SKY/WX    TMP DP  RH WIND       PRES   REMARKS
PINE RIDGE     CLOUDY    48  41  76 CALM      29.70R
GORDON         DRIZZLE   47  39  72 N9        29.68R
CHADRON        CLOUDY    49  26  41 NW26G37   29.71R
ALLIANCE       CLOUDY    47  25  42 NW18G37   29.72R
SIDNEY         CLOUDY    48  19  31 NW26G38   29.79R
CRESCENT LAKE    N/A     48  22  35 NW18G35     N/A
$$

...OBSERVATIONS IN NORTHERN NEBRASKA AND FAR SOUTHERN SOUTH DAKOTA...

CITY           SKY/WX    TMP DP  RH WIND       PRES   REMARKS
WINNER         FAIR      57  44  62 NW18G30   29.54R
VALENTINE      CLOUDY    55  38  52 N18G30    29.58R
THEDFORD       PTCLDY    55  43  62 NW14G21   29.60R
AINSWORTH      MOCLDY    55  45  68 NW18      29.55S
O`NEILL        PTCLDY    60  59  97 S6        29.50R
ORD            CLOUDY    62  59  90 NE3       29.50R
BROKEN BOW     PTCLDY    53  51  93 N3        29.51R
HALSEY           N/A     55  51  86 NW9         N/A
BUTTE            N/A     58  56  92 NW7         N/A
CHAMBERS         N/A     61  59  92 S3          N/A
EWING            N/A     66  61  84 S9G17       N/A
$$

...OBSERVATIONS IN SOUTHWEST NEBRASKA AND FAR NORTHEAST COLORADO...

CITY           SKY/WX    TMP DP  RH WIND       PRES   REMARKS
HOLYOKE        FAIR      54  23  30 NW17G37   29.75R
IMPERIAL       CLEAR     52  28  39 NW20G29   29.69R
OGALLALA       MOCLDY    54  31  42 NW15G21   29.70R
NORTH PLATTE   CLEAR     54  39  57 NW21      29.59R
MCCOOK         CLEAR     57  40  52 W17       29.58R
LEXINGTON      CLEAR     60  54  79 SW7       29.52R
STAPLETON        N/A     52  44  74 CALM        N/A
GOTHENBURG       N/A     61  51  70 W3          N/A
CALLAWAY         N/A     58  55  91 W7          N/A
$$

...OBSERVATIONS IN CENTRAL LINCOLN COUNTY AREA...

CITY           SKY/WX    TMP DP  RH WIND       PRES   REMARKS
N.P. AIRPORT   CLEAR     54  39  57 NW21      29.59R
N.P. DOWNTOWN    N/A     55  37  50 NW8G15      N/A
N.P. SOUTHEAST   N/A     56  36  47 NW8G16      N/A
N.P. HILLCREST   N/A     56  35  45 NW20        N/A
$$

...SOME OBSERVATIONS FROM AROUND THE REGION...

CITY           SKY/WX    TMP DP  RH WIND       PRES   REMARKS
DENVER         CLOUDY    44  19  36 NE13      29.81R
LIMON          CLOUDY    40  32  73 N22G29    29.80R WCI  30
ASPEN          CLOUDY    30  28  92 N3        29.98R
LARAMIE        CLOUDY    29  17  61 W26G32    29.88R WCI  14
CASPER         CLOUDY    30  18  60 MISG      29.86R
CHEYENNE       CLOUDY    37  14  38 NW21G38   29.86R WCI  26
SCOTTSBLUFF    CLOUDY    48  22  35 W21G32    29.74R
GRAND ISLAND   CLOUDY    67  62  84 S21G29    29.54R
OMAHA          CLOUDY    67  61  81 S17       29.62S
SIOUX FALLS    MOCLDY    65  60  84 S17       29.51S
PIERRE         CLOUDY    54  41  61 NW23G38   29.54R
RAPID CITY     CLOUDY    49  28  44 NW28      29.66R
BISMARCK       MOCLDY    52  39  61 NW20G30   29.46F
KANSAS CITY    CLOUDY    66  58  75 S24G32    29.82R
HILL CITY      CLEAR     64  56  75 W16G26    29.60R
WICHITA        CLOUDY    69  65  86 S21G30    29.74S
DODGE CITY     CLEAR     61  57  87 S18G31    29.64R
OKLAHOMA CITY  MOCLDY    68  65  90 S14       29.83R
DALLAS         MOCLDY    72  68  87 S15       29.87S
AMARILLO       CLEAR     58  56  93 S15       29.79R FOG
$$




USA.gov is the U.S. government's official web portal to all federal, state and local government web resources and services.